COSMOS 1275 DEB, 42181

Orbit data source: Space-Track

COSMOS 1275 DEB, 42181 is space debris in LEO originally from a launch on Thu, 04 Jun 1981 UTC launched from the Plesetsk Missile And Space Complex (PKMTR). Debris objects in space refer to the collection of defunct objects orbiting the Earth. Examples of debris include non-operational satellites, rocket bodies, and fragments generated from explosions, collisions, or faulty payload assembly.

Loading next visibility...
Identifier
42181, 1981-053SV
Orbit
LEO
Country
Flag of CISCIS
Related business
Manufacturer
Unknown
Mission
Spacecraft
Bus & Motor
Unknown
Mass
Unknown
Launch date (UTC)
1981-06-04 (44 years ago)
Launch vehicle
Unknown
Launch site
Plesetsk Missile And Space Complex (PKMTR)
Object type
Payload
Rocket body
Debris
Shape & HBR
Unknown shape, 0.1 m
Radar Cross Section
Small (<0.1 m²)

Expand to show TLE details & history
Last TLE update: 5 days ago

TLE from 5 days ago
0 COSMOS 1275 DEB
1 42181U 81053SV  25282.21049204  .00001006  00000-0  73660-3 0  9996
2 42181  82.9015 264.1115 0077257 105.5104 255.4610 13.93535387 43970
Epoch: 2025-10-09T05:03Z
TLE epoch observation values (Epoch: 2025-10-09T05:03:06.512Z)
Latitude
Longitude
170.26042°
Altitude
933.749 km
Speed
7.378 km/s
True Right ascension
17h 36m 26s
True Declination
0° 00' 00"
Sunlit
Object was in daylight at epoch
Visualization orbit readout
Latitude
Unknown
Longitude
Unknown
Altitude
Unknown
Speed
Unknown
Apparent Right ascension
Unknown
Apparent Declination
Unknown
Sunlit
N/A
Visualization observer readout
Local Sidereal Time
04:19:56
Azimuth
Unknown
Elevation
Unknown
Doppler factor
Unknown
Orbital elements
Apogee altitude
969.724 km
Perigee altitude
857.06 km
Semi-major axis
7,291.529 km
Eccentricity
0.00773
Inclination
82.9015°
RAAN
264.1115°
Arg. of periapsis
105.5104°
True anomaly
254.60615°
Mean anomaly
255.461°
Eccentric anomaly
255.03337°
Mean motion
3.4859 °/min
Orbital period
103.27 mins
BSTAR
0.0007366
Loading maneuver chart data...
Computing Atmospheric mass density...

Documentation

Showing up to 5 results
|